| time (UTC) | temp C | wind direction | speed KPH | gust KPH | rain 1hr cm | rain 24hr cm | rain mn cm | humidity % | barometer mb |
| 20260506134729 | 11 | 12 | 14.5 | 20.9 | 0.00 | 0.00 | 0.00 | 79 | 1012.3 |
| 20260506133741 | 11 | 39 | 14.5 | 20.9 | 0.00 | 0.00 | 0.00 | 78 | 1012.2 |
| 20260506132800 | 10 | 44 | 9.7 | 16.1 | 0.00 | 0.00 | 0.00 | 81 | 1012.2 |
| 20260506131752 | 10 | 30 | 8.0 | 14.5 | 0.00 | 0.00 | 0.00 | 83 | 1012.2 |
| 20260506130801 | 10 | 26 | 9.7 | 17.7 | 0.00 | 0.00 | 0.00 | 83 | 1012.2 |
| 20260506125817 | 10 | 29 | 11.3 | 22.5 | 0.00 | 0.00 | 0.00 | 83 | 1012.2 |
| 20260506124834 | 10 | 44 | 16.1 | 27.4 | 0.00 | 0.00 | 0.00 | 82 | 1012.1 |
| 20260506123846 | 10 | 44 | 20.9 | 27.4 | 0.00 | 0.00 | 0.00 | 80 | 1012.1 |
| 20260506122854 | 10 | 42 | 20.9 | 30.6 | 0.00 | 0.00 | 0.00 | 80 | 1012.1 |
| 20260506121912 | 11 | 37 | 22.5 | 30.6 | 0.00 | 0.00 | 0.00 | 78 | 1012.2 |
| 20260506115821 | 11 | 13 | 19.3 | 30.6 | 0.00 | 0.00 | 0.00 | 75 | 1011.9 |
| 20260506114827 | 11 | 355 | 17.7 | 29.0 | 0.00 | 0.00 | 0.00 | 76 | 1011.8 |
| 20260506113758 | 11 | 5 | 16.1 | 30.6 | 0.00 | 0.00 | 0.00 | 74 | 1011.7 |
| 20260506112753 | 11 | 20 | 22.5 | 30.6 | 0.00 | 0.00 | 0.00 | 74 | 1011.8 |
| 20260506111735 | 11 | 350 | 19.3 | 32.2 | 0.00 | 0.00 | 0.00 | 74 | 1011.6 |
| 20260506110711 | 11 | 347 | 20.9 | 32.2 | 0.00 | 0.00 | 0.00 | 75 | 1011.7 |
| 20260506105654 | 11 | 12 | 20.9 | 27.4 | 0.00 | 0.00 | 0.00 | 75 | 1011.7 |
| 20260506104708 | 11 | 0 | 17.7 | 27.4 | 0.00 | 0.00 | 0.00 | 75 | 1011.7 |
| 20260506102543 | 11 | 355 | 16.1 | 24.1 | 0.00 | 0.00 | 0.00 | 78 | 1011.7 |
| 20260506101607 | 11 | 351 | 17.7 | 24.1 | 0.00 | 0.00 | 0.00 | 78 | 1011.7 |
| 20260506100616 | 11 | 32 | 17.7 | 25.7 | 0.00 | 0.00 | 0.00 | 77 | 1011.8 |
| 20260506095544 | 11 | 355 | 19.3 | 25.7 | 0.00 | 0.00 | 0.00 | 77 | 1011.8 |
| 20260506094518 | 11 | 10 | 17.7 | 25.7 | 0.00 | 0.00 | 0.00 | 80 | 1011.7 |
| 20260506093502 | 11 | 0 | 19.3 | 27.4 | 0.00 | 0.00 | 0.00 | 79 | 1011.8 |
| 20260506092513 | 11 | 25 | 17.7 | 27.4 | 0.00 | 0.00 | 0.00 | 78 | 1011.8 |
| 20260506091512 | 10 | 13 | 16.1 | 24.1 | 0.00 | 0.00 | 0.00 | 78 | 1011.7 |
| 20260506090525 | 10 | 5 | 17.7 | 27.4 | 0.00 | 0.00 | 0.00 | 80 | 1011.6 |
| 20260506085518 | 10 | 342 | 19.3 | 27.4 | 0.00 | 0.00 | 0.00 | 79 | 1011.6 |
| 20260506084540 | 10 | 348 | 20.9 | 30.6 | 0.00 | 0.00 | 0.00 | 81 | 1011.5 |
| 20260506083545 | 10 | 336 | 22.5 | 30.6 | 0.00 | 0.00 | 0.00 | 82 | 1011.4 |
| 20260506081419 | 9 | 355 | 22.5 | 30.6 | 0.00 | 0.00 | 0.00 | 83 | 1011.5 |
| 20260506080407 | 9 | 348 | 20.9 | 27.4 | 0.00 | 0.00 | 0.00 | 84 | 1011.5 |
| 20260506073246 | 8 | 340 | 19.3 | 30.6 | 0.00 | 0.00 | 0.00 | 85 | 1011.5 |
| 20260506072305 | 8 | 355 | 17.7 | 30.6 | 0.00 | 0.00 | 0.00 | 85 | 1011.6 |
| 20260506071323 | 8 | 338 | 17.7 | 27.4 | 0.00 | 0.00 | 0.00 | 86 | 1011.4 |
| 20260506070309 | 8 | 355 | 17.7 | 27.4 | 0.00 | 0.00 | 0.00 | 87 | 1011.4 |
| 20260506062329 | 7 | 329 | 14.5 | 22.5 | 0.00 | 0.00 | 0.00 | 89 | 1011.4 |
| 20260506061341 | 7 | 328 | 16.1 | 22.5 | 0.00 | 0.00 | 0.00 | 89 | 1011.3 |
| 20260506060358 | 7 | 328 | 16.1 | 20.9 | 0.00 | 0.00 | 0.00 | 89 | 1011.3 |
| 20260506051213 | 6 | 314 | 12.9 | 20.9 | 0.00 | 0.00 | 0.00 | 88 | 1011.2 |
| 20260506050219 | 6 | 310 | 14.5 | 20.9 | 0.00 | 0.00 | 0.00 | 87 | 1011.2 |
| 20260506044144 | 7 | 325 | 16.1 | 22.5 | 0.00 | 0.00 | 0.00 | 87 | 1011.2 |
| 20260506043157 | 7 | 326 | 16.1 | 22.5 | 0.00 | 0.00 | 0.00 | 87 | 1011.2 |
| 20260506041009 | 7 | 345 | 17.7 | 22.5 | 0.00 | 0.00 | 0.00 | 88 | 1011.2 |
| 20260506040000 | 7 | 342 | 16.1 | 22.5 | 0.00 | 0.00 | 0.00 | 88 | 1011.1 |
| 20260506034943 | 7 | 347 | 16.1 | 22.5 | 0.00 | 0.00 | 0.00 | 88 | 1011.1 |
| 20260506032911 | 7 | 342 | 16.1 | 22.5 | 0.00 | 0.00 | 0.00 | 86 | 1011.4 |
| 20260506031909 | 7 | 355 | 14.5 | 20.9 | 0.00 | 0.00 | 0.00 | 86 | 1011.4 |
| 20260506030933 | 7 | 351 | 16.1 | 20.9 | 0.00 | 0.00 | 0.00 | 86 | 1011.5 |
| 20260506025952 | 8 | 355 | 14.5 | 20.9 | 0.00 | 0.00 | 0.00 | 86 | 1011.6 |
| 20260506025001 | 8 | 0 | 14.5 | 20.9 | 0.00 | 0.00 | 0.00 | 86 | 1011.5 |
| 20260506024017 | 8 | 346 | 14.5 | 19.3 | 0.00 | 0.00 | 0.00 | 85 | 1011.6 |
| 20260506023001 | 8 | 350 | 17.7 | 22.5 | 0.00 | 0.00 | 0.00 | 85 | 1011.7 |
| 20260506022003 | 8 | 349 | 16.1 | 22.5 | 0.00 | 0.00 | 0.00 | 85 | 1011.8 |
| 20260506020939 | 8 | 355 | 16.1 | 22.5 | 0.00 | 0.00 | 0.00 | 85 | 1011.8 |
| 20260506015919 | 8 | 355 | 12.9 | 22.5 | 0.00 | 0.00 | 0.00 | 86 | 1011.8 |
| 20260506013815 | 8 | 346 | 8.0 | 14.5 | 0.00 | 0.00 | 0.00 | 88 | 1011.9 |
| 20260506012830 | 8 | 330 | 9.7 | 14.5 | 0.00 | 0.00 | 0.00 | 87 | 1011.8 |
| 20260506011841 | 8 | 5 | 6.4 | 14.5 | 0.00 | 0.00 | 0.00 | 87 | 1011.8 |
| 20260506010830 | 8 | 16 | 8.0 | 17.7 | 0.00 | 0.00 | 0.00 | 87 | 1012.0 |
| 20260506005847 | 8 | 19 | 9.7 | 17.7 | 0.00 | 0.00 | 0.00 | 87 | 1011.9 |
| 20260506004907 | 9 | 12 | 11.3 | 17.7 | 0.00 | 0.00 | 0.00 | 87 | 1012.0 |
| 20260506003927 | 9 | 5 | 9.7 | 19.3 | 0.00 | 0.00 | 0.00 | 87 | 1012.1 |
| 20260506001810 | 8 | 17 | 9.7 | 19.3 | 0.00 | 0.00 | 0.00 | 87 | 1012.2 |
| 20260506000736 | 8 | 5 | 9.7 | 19.3 | 0.00 | 0.00 | 0.00 | 87 | 1012.2 |
| 20260505235730 | 9 | 5 | 9.7 | 17.7 | 0.00 | 0.00 | 0.00 | 87 | 1012.2 |
| 20260505234704 | 9 | 5 | 9.7 | 16.1 | 0.00 | 0.00 | 0.00 | 87 | 1012.2 |
| 20260505233632 | 9 | 355 | 9.7 | 19.3 | 0.00 | 0.00 | 0.00 | 86 | 1012.3 |
| 20260505232603 | 9 | 355 | 9.7 | 19.3 | 0.00 | 0.00 | 0.00 | 86 | 1012.3 |
| 20260505231548 | 9 | 19 | 9.7 | 14.5 | 0.00 | 0.00 | 0.00 | 85 | 1012.3 |
| 20260505230612 | 9 | 5 | 8.0 | 14.5 | 0.00 | 0.00 | 0.00 | 85 | 1012.4 |
| 20260505225612 | 9 | 5 | 8.0 | 14.5 | 0.00 | 0.00 | 0.00 | 85 | 1012.4 |
| 20260505224558 | 9 | 19 | 9.7 | 14.5 | 0.00 | 0.00 | 0.00 | 84 | 1012.5 |
| 20260505223531 | 9 | 19 | 9.7 | 17.7 | 0.00 | 0.00 | 0.00 | 84 | 1012.5 |
| 20260505222524 | 9 | 5 | 9.7 | 20.9 | 0.00 | 0.00 | 0.00 | 83 | 1012.5 |
| 20260505221504 | 10 | 26 | 9.7 | 20.9 | 0.00 | 0.00 | 0.00 | 83 | 1012.6 |
| 20260505220501 | 10 | 17 | 11.3 | 20.9 | 0.00 | 0.00 | 0.00 | 82 | 1012.5 |
| 20260505215459 | 10 | 14 | 11.3 | 22.5 | 0.00 | 0.00 | 0.00 | 82 | 1012.5 |
| 20260505214438 | 10 | 5 | 12.9 | 22.5 | 0.00 | 0.00 | 0.00 | 81 | 1012.4 |
| 20260505213418 | 10 | 24 | 11.3 | 17.7 | 0.00 | 0.00 | 0.00 | 81 | 1012.4 |
| 20260505212343 | 10 | 17 | 11.3 | 27.4 | 0.00 | 0.00 | 0.00 | 81 | 1012.4 |
| 20260505211322 | 10 | 32 | 11.3 | 27.4 | 0.00 | 0.00 | 0.00 | 80 | 1012.4 |
| 20260505210305 | 11 | 38 | 12.9 | 25.7 | 0.00 | 0.00 | 0.00 | 80 | 1012.3 |
| 20260505205324 | 11 | 45 | 16.1 | 25.7 | 0.00 | 0.00 | 0.00 | 80 | 1012.4 |
| 20260505204333 | 11 | 42 | 17.7 | 22.5 | 0.00 | 0.00 | 0.00 | 79 | 1012.3 |
| 20260505203327 | 11 | 58 | 12.9 | 22.5 | 0.00 | 0.00 | 0.00 | 78 | 1012.3 |
| 20260505201224 | 11 | 51 | 6.4 | 14.5 | 0.00 | 0.00 | 0.00 | 78 | 1012.3 |
| 20260505195100 | 12 | 59 | 11.3 | 16.1 | 0.00 | 0.00 | 0.00 | 76 | 1012.0 |
| 20260505194048 | 12 | 70 | 9.7 | 17.7 | 0.00 | 0.00 | 0.00 | 76 | 1011.8 |
| 20260505193021 | 12 | 62 | 11.3 | 17.7 | 0.00 | 0.00 | 0.00 | 76 | 1011.7 |
| 20260505192011 | 12 | 62 | 9.7 | 16.1 | 0.00 | 0.00 | 0.00 | 77 | 1011.6 |
| 20260505190952 | 12 | 101 | 8.0 | 16.1 | 0.00 | 0.00 | 0.00 | 77 | 1011.4 |
| 20260505190007 | 12 | 78 | 9.7 | 16.1 | 0.00 | 0.00 | 0.00 | 77 | 1011.2 |
| 20260505183835 | 12 | 75 | 14.5 | 17.7 | 0.00 | 0.00 | 0.00 | 75 | 1011.3 |
| 20260505182843 | 12 | 71 | 16.1 | 19.3 | 0.00 | 0.00 | 0.00 | 75 | 1011.3 |
| 20260505181822 | 12 | 83 | 14.5 | 22.5 | 0.00 | 0.00 | 0.00 | 74 | 1011.3 |
| 20260505180828 | 12 | 69 | 16.1 | 22.5 | 0.00 | 0.00 | 0.00 | 73 | 1011.3 |
| 20260505175849 | 12 | 84 | 16.1 | 19.3 | 0.00 | 0.00 | 0.00 | 72 | 1011.3 |
| 20260505174830 | 12 | 109 | 11.3 | 19.3 | 0.00 | 0.00 | 0.00 | 74 | 1011.3 |
| 20260505172616 | 12 | 108 | 11.3 | 20.9 | 0.00 | 0.00 | 0.00 | 78 | 1011.2 |
| 20260505170515 | 12 | 117 | 16.1 | 20.9 | 0.00 | 0.00 | 0.00 | 73 | 1011.3 |
| 20260505165458 | 12 | 106 | 14.5 | 22.5 | 0.00 | 0.00 | 0.00 | 72 | 1011.3 |
| 20260505164510 | 12 | 107 | 16.1 | 22.5 | 0.00 | 0.00 | 0.00 | 72 | 1011.4 |
| 20260505163447 | 12 | 95 | 12.9 | 20.9 | 0.00 | 0.00 | 0.00 | 71 | 1011.4 |
| 20260505162440 | 12 | 113 | 16.1 | 20.9 | 0.00 | 0.00 | 0.00 | 72 | 1011.0 |
| 20260505161453 | 12 | 98 | 14.5 | 20.9 | 0.00 | 0.00 | 0.00 | 71 | 1011.1 |
| 20260505160518 | 12 | 114 | 16.1 | 24.1 | 0.00 | 0.00 | 0.00 | 70 | 1011.2 |
| 20260505152521 | 12 | 115 | 14.5 | 22.5 | 0.00 | 0.00 | 0.00 | 68 | 1011.4 |
| 20260505140126 | 12 | 110 | 16.1 | 20.9 | 0.00 | 0.00 | 0.00 | 72 | 1011.7 |